Terminal Aerodrome Forecast
Issued by NWS

Home | Current Version | Previous Version | Text Only | Print | Product List | Glossary On
Versions: 1 2 3 4 5 6 7 8 9 10 11 12 13 14 15
891
FTUS42 TJSJ 091125
TAFIST
TAF
TIST 091125Z 0912/1012 10008KT P6SM FEW025
     FM091300 12012KT P6SM SCT022
     FM092300 09008KT P6SM VCSH SCT025 SCT040=

USA.gov is the U.S. government's official web portal to all federal, state and local government web resources and services.